Wetterdaten: aktuell Freitag, 22.02.2019 21:40
Datum Zeit Temp. A. Feuchte A. Luftdruck Regen Wind Richtung Richtung Sonnenschein Solar Taupunkt Windben
22.02.2019 21:40 0,7 C 84 % 1041,6 hPa 0,0 l/m 0,0 km/h (0 Bft) N-NO 30 0 min 0 W/m -1,7 C 0,0 km/h (0 Bft)
22.02.2019 21:35 0,8 C 84 % 1041,6 hPa 0,0 l/m 0,0 km/h (0 Bft) N-NO 30 0 min 0 W/m -1,6 C 0,0 km/h (0 Bft)
22.02.2019 21:30 0,8 C 84 % 1041,7 hPa 0,0 l/m 0,0 km/h (0 Bft) N-NO 30 0 min 0 W/m -1,6 C 0,0 km/h (0 Bft)
22.02.2019 21:25 0,9 C 84 % 1041,6 hPa 0,0 l/m 0,0 km/h (0 Bft) N-NO 30 0 min 0 W/m -1,5 C 0,0 km/h (0 Bft)
22.02.2019 21:20 0,9 C 84 % 1041,5 hPa 0,0 l/m 0,0 km/h (0 Bft) N-NO 30 0 min 0 W/m -1,5 C 0,0 km/h (0 Bft)
22.02.2019 21:16 1,0 C 84 % 1041,4 hPa 0,0 l/m 0,0 km/h (0 Bft) N-NO 30 0 min 0 W/m -1,4 C 0,0 km/h (0 Bft)
22.02.2019 21:10 1,1 C 83 % 1041,6 hPa 0,0 l/m 0,0 km/h (0 Bft) N-NO 30 0 min 0 W/m -1,5 C 0,0 km/h (0 Bft)
22.02.2019 21:05 1,2 C 83 % 1041,6 hPa 0,0 l/m 0,0 km/h (0 Bft) N-NO 30 0 min 0 W/m -1,4 C 0,0 km/h (0 Bft)
22.02.2019 21:00 1,3 C 83 % 1041,7 hPa 0,0 l/m 0,0 km/h (0 Bft) N-NO 30 0 min 0 W/m -1,3 C 0,0 km/h (0 Bft)
22.02.2019 20:55 1,4 C 83 % 1041,6 hPa 0,0 l/m 0,0 km/h (0 Bft) N-NO 30 0 min 0 W/m -1,2 C 0,0 km/h (0 Bft)
22.02.2019 20:50 1,5 C 82 % 1041,6 hPa 0,0 l/m 0,0 km/h (0 Bft) N-NO 30 0 min 0 W/m -1,2 C 0,0 km/h (0 Bft)
22.02.2019 20:45 1,6 C 82 % 1041,4 hPa 0,0 l/m 0,0 km/h (0 Bft) N-NO 30 0 min 0 W/m -1,1 C 0,0 km/h (0 Bft)
22.02.2019 20:40 1,6 C 82 % 1041,3 hPa 0,0 l/m 0,0 km/h (0 Bft) N-NO 30 0 min 0 W/m -1,1 C 0,0 km/h (0 Bft)
22.02.2019 20:35 1,7 C 82 % 1041,4 hPa 0,0 l/m 0,0 km/h (0 Bft) N-NO 30 0 min 0 W/m -1,0 C 0,0 km/h (0 Bft)
22.02.2019 20:30 1,8 C 82 % 1041,3 hPa 0,0 l/m 0,0 km/h (0 Bft) N-NO 30 0 min 0 W/m -0,9 C 0,0 km/h (0 Bft)
22.02.2019 20:25 1,8 C 81 % 1041,2 hPa 0,0 l/m 0,0 km/h (0 Bft) N-NO 30 0 min 0 W/m -1,1 C 0,0 km/h (0 Bft)
22.02.2019 20:20 1,9 C 81 % 1041,2 hPa 0,0 l/m 0,0 km/h (0 Bft) N-NO 30 0 min 0 W/m -1,0 C 0,0 km/h (0 Bft)
22.02.2019 20:15 2,0 C 81 % 1041,2 hPa 0,0 l/m 0,0 km/h (0 Bft) N-NO 30 0 min 0 W/m -0,9 C 0,0 km/h (0 Bft)
22.02.2019 20:10 2,1 C 81 % 1041,1 hPa 0,0 l/m 0,0 km/h (0 Bft) N-NO 30 0 min 0 W/m -0,8 C 0,0 km/h (0 Bft)
22.02.2019 20:05 2,1 C 81 % 1041,1 hPa 0,0 l/m 0,0 km/h (0 Bft) N-NO 30 0 min 0 W/m -0,8 C 0,0 km/h (0 Bft)
22.02.2019 20:00 2,2 C 80 % 1041,1 hPa 0,0 l/m 0,0 km/h (0 Bft) N-NO 30 0 min 0 W/m -0,9 C 0,0 km/h (0 Bft)
22.02.2019 19:55 2,2 C 80 % 1041,2 hPa 0,0 l/m 0,0 km/h (0 Bft) N-NO 30 0 min 0 W/m -0,9 C 0,0 km/h (0 Bft)
22.02.2019 19:50 2,2 C 80 % 1041,3 hPa 0,0 l/m 0,0 km/h (0 Bft) N-NO 30 0 min 0 W/m -0,9 C 0,0 km/h (0 Bft)
22.02.2019 19:45 2,3 C 80 % 1041,3 hPa 0,0 l/m 0,0 km/h (0 Bft) N-NO 30 0 min 0 W/m -0,8 C 0,0 km/h (0 Bft)
22.02.2019 19:40 2,4 C 80 % 1041,4 hPa 0,0 l/m 0,0 km/h (0 Bft) N-NO 30 0 min 0 W/m -0,7 C 0,0 km/h (0 Bft)
22.02.2019 19:35 2,4 C 80 % 1041,3 hPa 0,0 l/m 0,0 km/h (0 Bft) N-NO 30 0 min 0 W/m -0,7 C 0,0 km/h (0 Bft)
22.02.2019 19:30 2,5 C 79 % 1041,3 hPa 0,0 l/m 0,0 km/h (0 Bft) N-NO 30 0 min 0 W/m -0,8 C 0,0 km/h (0 Bft)
22.02.2019 19:25 2,6 C 79 % 1041,2 hPa 0,0 l/m 0,0 km/h (0 Bft) N-NO 30 0 min 0 W/m -0,7 C 0,0 km/h (0 Bft)
22.02.2019 19:20 2,6 C 79 % 1041,2 hPa 0,0 l/m 0,0 km/h (0 Bft) N-NO 30 0 min 0 W/m -0,7 C 0,0 km/h (0 Bft)
22.02.2019 19:15 2,7 C 79 % 1041,2 hPa 0,0 l/m 0,0 km/h (0 Bft) N-NO 30 0 min 0 W/m -0,6 C 0,0 km/h (0 Bft)
22.02.2019 19:10 2,7 C 78 % 1041,3 hPa 0,0 l/m 0,0 km/h (0 Bft) N-NO 30 0 min 0 W/m -0,7 C 0,0 km/h (0 Bft)
22.02.2019 19:05 2,8 C 78 % 1041,3 hPa 0,0 l/m 0,0 km/h (0 Bft) N-NO 30 0 min 0 W/m -0,6 C 0,0 km/h (0 Bft)
22.02.2019 19:00 2,8 C 78 % 1041,1 hPa 0,0 l/m 0,0 km/h (0 Bft) N-NO 30 0 min 0 W/m -0,6 C 0,0 km/h (0 Bft)
22.02.2019 18:55 2,9 C 78 % 1041,2 hPa 0,0 l/m 0,0 km/h (0 Bft) N-NO 30 0 min 0 W/m -0,5 C 0,0 km/h (0 Bft)
22.02.2019 18:50 3,0 C 78 % 1041,1 hPa 0,0 l/m 0,0 km/h (0 Bft) N-NO 30 0 min 0 W/m -0,5 C 0,0 km/h (0 Bft)
22.02.2019 18:45 3,1 C 77 % 1041,1 hPa 0,0 l/m 0,0 km/h (0 Bft) N-NO 30 0 min 0 W/m -0,5 C 0,0 km/h (0 Bft)
22.02.2019 18:40 3,3 C 76 % 1040,9 hPa 0,0 l/m 0,0 km/h (0 Bft) N-NO 30 0 min 0 W/m -0,5 C 0,0 km/h (0 Bft)
22.02.2019 18:35 3,4 C 76 % 1040,9 hPa 0,0 l/m 0,0 km/h (0 Bft) N-NO 30 0 min 0 W/m -0,4 C 0,0 km/h (0 Bft)
22.02.2019 18:30 3,6 C 75 % 1040,9 hPa 0,0 l/m 0,0 km/h (0 Bft) N-NO 30 0 min 0 W/m -0,4 C 0,0 km/h (0 Bft)
22.02.2019 18:25 3,7 C 75 % 1040,9 hPa 0,0 l/m 0,0 km/h (0 Bft) N-NO 30 0 min 0 W/m -0,3 C 0,0 km/h (0 Bft)
22.02.2019 18:20 3,8 C 74 % 1040,9 hPa 0,0 l/m 0,0 km/h (0 Bft) N-NO 30 0 min 0 W/m -0,4 C 0,0 km/h (0 Bft)
22.02.2019 18:15 3,9 C 74 % 1040,8 hPa 0,0 l/m 0,0 km/h (0 Bft) N-NO 30 0 min 0 W/m -0,3 C 0,0 km/h (0 Bft)
22.02.2019 18:10 4,1 C 74 % 1040,7 hPa 0,0 l/m 0,0 km/h (0 Bft) N-NO 30 0 min 0 W/m -0,1 C 0,0 km/h (0 Bft)
22.02.2019 18:05 4,2 C 73 % 1040,5 hPa 0,0 l/m 0,0 km/h (0 Bft) N-NO 30 0 min 0 W/m -0,2 C 0,0 km/h (0 Bft)
22.02.2019 18:00 4,3 C 73 % 1040,5 hPa 0,0 l/m 0,0 km/h (0 Bft) N-NO 30 0 min 0 W/m -0,1 C 0,0 km/h (0 Bft)
22.02.2019 17:55 4,4 C 72 % 1040,4 hPa 0,0 l/m 0,0 km/h (0 Bft) N-NO 30 0 min 0 W/m -0,2 C 0,0 km/h (0 Bft)
22.02.2019 17:50 4,6 C 72 % 1040,4 hPa 0,0 l/m 0,0 km/h (0 Bft) N-NO 30 0 min 0 W/m -0,0 C 0,0 km/h (0 Bft)
22.02.2019 17:45 4,7 C 71 % 1040,5 hPa 0,0 l/m 0,0 km/h (0 Bft) NO 48 0 min 0 W/m -0,1 C 0,0 km/h (0 Bft)
22.02.2019 17:40 4,9 C 71 % 1040,5 hPa 0,0 l/m 0,0 km/h (0 Bft) O-NO 63 0 min 2 W/m 0,1 C 0,0 km/h (0 Bft)
22.02.2019 17:35 5,1 C 70 % 1040,5 hPa 0,0 l/m 0,0 km/h (0 Bft) O-NO 58 0 min 7 W/m 0,1 C 0,0 km/h (0 Bft)
22.02.2019 17:30 5,2 C 70 % 1040,3 hPa 0,0 l/m 0,0 km/h (0 Bft) NO 49 5 min 10 W/m 0,2 C 0,0 km/h (0 Bft)
22.02.2019 17:25 5,3 C 69 % 1040,3 hPa 0,0 l/m 0,0 km/h (0 Bft) NO 55 0 min 11 W/m 0,1 C 0,0 km/h (0 Bft)
22.02.2019 17:20 5,5 C 68 % 1040,4 hPa 0,0 l/m 0,0 km/h (0 Bft) O-NO 67 0 min 13 W/m 0,1 C 1,6 km/h (1 Bft)
22.02.2019 17:15 5,7 C 68 % 1040,2 hPa 0,0 l/m 0,0 km/h (0 Bft) N-NO 19 0 min 16 W/m 0,3 C 0,0 km/h (0 Bft)
22.02.2019 17:10 5,9 C 67 % 1040,1 hPa 0,0 l/m 0,0 km/h (0 Bft) N-NO 33 0 min 18 W/m 0,3 C 0,0 km/h (0 Bft)
22.02.2019 17:05 6,1 C 67 % 1040,1 hPa 0,0 l/m 0,0 km/h (0 Bft) N-NO 31 0 min 21 W/m 0,4 C 0,0 km/h (0 Bft)
22.02.2019 17:00 6,2 C 67 % 1040,0 hPa 0,0 l/m 0,0 km/h (0 Bft) N-NO 13 0 min 25 W/m 0,5 C 0,0 km/h (0 Bft)
22.02.2019 16:55 6,3 C 67 % 1039,9 hPa 0,0 l/m 0,0 km/h (0 Bft) O-NO 73 0 min 26 W/m 0,6 C 0,0 km/h (0 Bft)
22.02.2019 16:50 6,5 C 66 % 1039,9 hPa 0,0 l/m 0,0 km/h (0 Bft) O-NO 73 0 min 28 W/m 0,6 C 0,0 km/h (0 Bft)
22.02.2019 16:45 6,7 C 65 % 1039,9 hPa 0,0 l/m 0,0 km/h (0 Bft) O 90 0 min 39 W/m 0,6 C 0,0 km/h (0 Bft)
22.02.2019 16:40 6,8 C 66 % 1039,8 hPa 0,0 l/m 0,0 km/h (0 Bft) O-NO 71 0 min 51 W/m 0,9 C 0,0 km/h (0 Bft)
22.02.2019 16:35 6,9 C 65 % 1039,9 hPa 0,0 l/m 0,0 km/h (0 Bft) NO 42 0 min 56 W/m 0,8 C 0,0 km/h (0 Bft)
22.02.2019 16:30 7,0 C 63 % 1039,9 hPa 0,0 l/m 0,0 km/h (0 Bft) NO 40 0 min 85 W/m 0,4 C 1,6 km/h (1 Bft)
22.02.2019 16:25 7,0 C 64 % 1039,9 hPa 0,0 l/m 0,0 km/h (0 Bft) N-NO 28 5 min 105 W/m 0,7 C 0,0 km/h (0 Bft)
22.02.2019 16:20 7,0 C 64 % 1039,9 hPa 0,0 l/m 0,0 km/h (0 Bft) N-NO 22 5 min 107 W/m 0,7 C 0,0 km/h (0 Bft)
22.02.2019 16:15 7,1 C 64 % 1039,8 hPa 0,0 l/m 0,0 km/h (0 Bft) NO 45 5 min 113 W/m 0,8 C 0,0 km/h (0 Bft)
22.02.2019 16:10 7,1 C 63 % 1039,8 hPa 0,0 l/m 0,0 km/h (0 Bft) NO 55 5 min 126 W/m 0,5 C 0,0 km/h (0 Bft)
22.02.2019 16:05 7,2 C 63 % 1039,7 hPa 0,0 l/m 1,6 km/h (1 Bft) NO 34 5 min 121 W/m 0,6 C 6,4 km/h (2 Bft)
22.02.2019 16:00 7,4 C 63 % 1039,7 hPa 0,0 l/m 0,0 km/h (0 Bft) N-NO 28 5 min 127 W/m 0,8 C 0,0 km/h (0 Bft)
22.02.2019 15:55 7,4 C 63 % 1039,7 hPa 0,0 l/m 0,0 km/h (0 Bft) N-NO 32 0 min 105 W/m 0,8 C 0,0 km/h (0 Bft)
22.02.2019 15:50 7,3 C 64 % 1039,8 hPa 0,0 l/m 0,0 km/h (0 Bft) O-SO 117 5 min 149 W/m 1,0 C 0,0 km/h (0 Bft)
22.02.2019 15:45 7,3 C 64 % 1039,7 hPa 0,0 l/m 0,0 km/h (0 Bft) O-SO 103 0 min 124 W/m 1,0 C 0,0 km/h (0 Bft)
22.02.2019 15:40 7,1 C 64 % 1039,7 hPa 0,0 l/m 0,0 km/h (0 Bft) N 355 0 min 140 W/m 0,8 C 1,6 km/h (1 Bft)
22.02.2019 15:35 7,1 C 64 % 1039,7 hPa 0,0 l/m 0,0 km/h (0 Bft) O-NO 63 5 min 151 W/m 0,8 C 0,0 km/h (0 Bft)
22.02.2019 15:30 7,1 C 64 % 1039,7 hPa 0,0 l/m 0,0 km/h (0 Bft) O-NO 57 0 min 115 W/m 0,8 C 0,0 km/h (0 Bft)
22.02.2019 15:26 7,1 C 64 % 1039,7 hPa 0,0 l/m 0,0 km/h (0 Bft) O 95 6 min 181 W/m 0,8 C 1,6 km/h (1 Bft)
22.02.2019 15:20 7,1 C 66 % 1039,5 hPa 0,0 l/m 0,0 km/h (0 Bft) NO 38 5 min 163 W/m 1,2 C 1,6 km/h (1 Bft)
22.02.2019 15:15 6,9 C 66 % 1039,6 hPa 0,0 l/m 0,0 km/h (0 Bft) NO 46 0 min 77 W/m 1,0 C 1,6 km/h (1 Bft)
22.02.2019 15:10 7,0 C 66 % 1039,5 hPa 0,0 l/m 1,4 km/h (1 Bft) NO 46 5 min 177 W/m 1,1 C 6,4 km/h (2 Bft)
22.02.2019 15:05 6,9 C 67 % 1039,5 hPa 0,0 l/m 0,0 km/h (0 Bft) N-NW 327 0 min 104 W/m 1,2 C 0,0 km/h (0 Bft)
22.02.2019 15:00 6,8 C 67 % 1039,4 hPa 0,0 l/m 0,0 km/h (0 Bft) N 360 0 min 139 W/m 1,1 C 3,2 km/h (1 Bft)
22.02.2019 14:55 7,1 C 67 % 1039,2 hPa 0,0 l/m 0,0 km/h (0 Bft) O-NO 62 0 min 137 W/m 1,4 C 0,0 km/h (0 Bft)
22.02.2019 14:50 7,0 C 68 % 1039,3 hPa 0,0 l/m 2,0 km/h (1 Bft) O 86 0 min 164 W/m 1,5 C 16,1 km/h (3 Bft)
22.02.2019 14:45 7,1 C 68 % 1039,3 hPa 0,0 l/m 0,6 km/h (0 Bft) NO 36 0 min 173 W/m 1,6 C 4,8 km/h (1 Bft)
22.02.2019 14:40 7,1 C 69 % 1039,3 hPa 0,0 l/m 0,7 km/h (0 Bft) N-NO 32 5 min 244 W/m 1,8 C 4,8 km/h (1 Bft)
22.02.2019 14:35 6,7 C 67 % 1039,3 hPa 0,0 l/m 0,0 km/h (0 Bft) O-NO 74 0 min 189 W/m 1,0 C 0,0 km/h (0 Bft)
22.02.2019 14:30 6,9 C 67 % 1039,4 hPa 0,0 l/m 0,0 km/h (0 Bft) NO 53 5 min 214 W/m 1,2 C 0,0 km/h (0 Bft)
22.02.2019 14:25 6,9 C 69 % 1039,6 hPa 0,0 l/m 0,3 km/h (0 Bft) NO 36 0 min 142 W/m 1,6 C 4,8 km/h (1 Bft)
22.02.2019 14:20 6,9 C 68 % 1039,6 hPa 0,0 l/m 2,2 km/h (1 Bft) NO 34 0 min 148 W/m 1,4 C 9,7 km/h (2 Bft)
22.02.2019 14:15 6,9 C 70 % 1039,5 hPa 0,0 l/m 0,0 km/h (0 Bft) O-SO 119 0 min 161 W/m 1,8 C 1,6 km/h (1 Bft)
22.02.2019 14:10 6,7 C 68 % 1039,4 hPa 0,0 l/m 0,0 km/h (0 Bft) NO 52 0 min 164 W/m 1,2 C 0,0 km/h (0 Bft)
22.02.2019 14:05 7,2 C 68 % 1039,3 hPa 0,0 l/m 0,0 km/h (0 Bft) NO 43 0 min 216 W/m 1,7 C 1,6 km/h (1 Bft)
22.02.2019 14:00 6,7 C 69 % 1039,2 hPa 0,0 l/m 0,0 km/h (0 Bft) O-NO 57 5 min 293 W/m 1,4 C 0,0 km/h (0 Bft)
22.02.2019 13:55 6,8 C 68 % 1039,2 hPa 0,0 l/m 0,0 km/h (0 Bft) N-NO 27 5 min 296 W/m 1,3 C 0,0 km/h (0 Bft)
22.02.2019 13:50 7,4 C 68 % 1039,1 hPa 0,0 l/m 0,0 km/h (0 Bft) NO 42 5 min 290 W/m 1,9 C 0,0 km/h (0 Bft)
22.02.2019 13:45 7,6 C 69 % 1039,1 hPa 0,0 l/m 0,0 km/h (0 Bft) N-NO 24 5 min 326 W/m 2,3 C 0,0 km/h (0 Bft)
22.02.2019 13:40 7,2 C 72 % 1039,1 hPa 0,0 l/m 0,0 km/h (0 Bft) O 86 5 min 426 W/m 2,5 C 0,0 km/h (0 Bft)
22.02.2019 13:35 7,0 C 69 % 1039,2 hPa 0,0 l/m 0,0 km/h (0 Bft) NO 56 5 min 419 W/m 1,7 C 0,0 km/h (0 Bft)
22.02.2019 13:30 6,9 C 70 % 1039,1 hPa 0,0 l/m 0,0 km/h (0 Bft) NO 34 4 min 401 W/m 1,8 C 0,0 km/h (0 Bft)
22.02.2019 13:26 6,9 C 69 % 1039,1 hPa 0,0 l/m 0,0 km/h (0 Bft) NO 49 6 min 483 W/m 1,6 C 1,6 km/h (1 Bft)
22.02.2019 13:20 7,1 C 72 % 1039,0 hPa 0,0 l/m 0,0 km/h (0 Bft) NO 53 5 min 479 W/m 2,4 C 0,0 km/h (0 Bft)
22.02.2019 13:15 6,4 C 72 % 1038,9 hPa 0,0 l/m 0,0 km/h (0 Bft) N-NO 33 5 min 486 W/m 1,7 C 1,6 km/h (1 Bft)
22.02.2019 13:10 6,3 C 72 % 1038,8 hPa 0,0 l/m 0,0 km/h (0 Bft) O-NO 60 5 min 399 W/m 1,6 C 1,6 km/h (1 Bft)
22.02.2019 13:05 6,4 C 75 % 1038,9 hPa 0,0 l/m 0,0 km/h (0 Bft) O-SO 107 5 min 339 W/m 2,3 C 0,0 km/h (0 Bft)
22.02.2019 13:00 5,9 C 78 % 1038,9 hPa 0,0 l/m 0,0 km/h (0 Bft) O-NO 72 5 min 382 W/m 2,4 C 0,0 km/h (0 Bft)
22.02.2019 12:55 5,4 C 78 % 1038,9 hPa 0,0 l/m 0,0 km/h (0 Bft) O-NO 66 5 min 280 W/m 1,9 C 1,6 km/h (1 Bft)
22.02.2019 12:50 5,1 C 78 % 1038,9 hPa 0,0 l/m 0,0 km/h (0 Bft) O-SO 121 0 min 233 W/m 1,6 C 1,6 km/h (1 Bft)
22.02.2019 12:45 4,9 C 78 % 1038,9 hPa 0,0 l/m 1,4 km/h (1 Bft) NO 46 0 min 202 W/m 1,4 C 14,5 km/h (3 Bft)
22.02.2019 12:40 5,1 C 80 % 1038,8 hPa 0,0 l/m 0,0 km/h (0 Bft) NO 54 5 min 260 W/m 1,9 C 0,0 km/h (0 Bft)
22.02.2019 12:35 5,0 C 79 % 1038,7 hPa 0,0 l/m 0,0 km/h (0 Bft) N-NO 25 0 min 233 W/m 1,7 C 1,6 km/h (1 Bft)
22.02.2019 12:30 4,7 C 81 % 1038,6 hPa 0,0 l/m 0,0 km/h (0 Bft) NO 40 0 min 233 W/m 1,7 C 0,0 km/h (0 Bft)
22.02.2019 12:25 4,6 C 80 % 1038,6 hPa 0,0 l/m 1,7 km/h (1 Bft) O-NO 60 5 min 251 W/m 1,5 C 17,7 km/h (3 Bft)
22.02.2019 12:20 4,4 C 81 % 1038,6 hPa 0,0 l/m 0,0 km/h (0 Bft) NO 44 0 min 225 W/m 1,4 C 0,0 km/h (0 Bft)
22.02.2019 12:15 4,3 C 80 % 1038,6 hPa 0,0 l/m 0,1 km/h (0 Bft) NO 48 0 min 200 W/m 1,2 C 3,2 km/h (1 Bft)
22.02.2019 12:10 4,6 C 80 % 1038,7 hPa 0,0 l/m 0,0 km/h (0 Bft) NO 37 5 min 272 W/m 1,5 C 1,6 km/h (1 Bft)
22.02.2019 12:05 4,8 C 81 % 1038,6 hPa 0,0 l/m 1,7 km/h (1 Bft) NO 42 5 min 288 W/m 1,8 C 9,7 km/h (2 Bft)
22.02.2019 12:00 5,0 C 82 % 1038,6 hPa 0,0 l/m 0,0 km/h (0 Bft) N-NO 28 5 min 330 W/m 2,2 C 0,0 km/h (0 Bft)
22.02.2019 11:55 4,4 C 84 % 1038,6 hPa 0,0 l/m 0,6 km/h (0 Bft) O 83 5 min 296 W/m 1,9 C 9,7 km/h (2 Bft)
22.02.2019 11:50 3,9 C 86 % 1038,5 hPa 0,0 l/m 0,0 km/h (0 Bft) O-SO 108 0 min 208 W/m 1,8 C 0,0 km/h (0 Bft)
22.02.2019 11:45 3,5 C 86 % 1038,4 hPa 0,0 l/m 0,4 km/h (0 Bft) NO 37 0 min 230 W/m 1,4 C 14,5 km/h (3 Bft)
22.02.2019 11:40 3,4 C 86 % 1038,4 hPa 0,0 l/m 0,0 km/h (0 Bft) NO 36 0 min 196 W/m 1,3 C 1,6 km/h (1 Bft)
22.02.2019 11:35 3,5 C 86 % 1038,4 hPa 0,0 l/m 1,4 km/h (1 Bft) NO 42 0 min 89 W/m 1,4 C 14,5 km/h (3 Bft)
22.02.2019 11:30 3,6 C 87 % 1038,3 hPa 0,0 l/m 0,0 km/h (0 Bft) NO 46 0 min 142 W/m 1,6 C 1,6 km/h (1 Bft)
22.02.2019 11:25 3,6 C 87 % 1038,3 hPa 0,0 l/m 1,1 km/h (1 Bft) O-NO 59 0 min 183 W/m 1,6 C 14,5 km/h (3 Bft)
22.02.2019 11:20 3,5 C 88 % 1038,3 hPa 0,0 l/m 0,0 km/h (0 Bft) NO 40 0 min 176 W/m 1,7 C 1,6 km/h (1 Bft)
22.02.2019 11:15 3,4 C 88 % 1038,3 hPa 0,0 l/m 0,0 km/h (0 Bft) O-NO 77 0 min 169 W/m 1,6 C 0,0 km/h (0 Bft)
22.02.2019 11:10 3,3 C 88 % 1038,2 hPa 0,0 l/m 2,5 km/h (1 Bft) O 89 0 min 171 W/m 1,5 C 17,7 km/h (3 Bft)
22.02.2019 11:05 3,3 C 89 % 1038,2 hPa 0,0 l/m 1,3 km/h (1 Bft) NO 45 0 min 129 W/m 1,7 C 16,1 km/h (3 Bft)
22.02.2019 11:00 3,2 C 89 % 1038,1 hPa 0,0 l/m 0,6 km/h (0 Bft) O-SO 103 0 min 108 W/m 1,6 C 4,8 km/h (1 Bft)
22.02.2019 10:55 3,1 C 88 % 1038,1 hPa 0,0 l/m 3,1 km/h (1 Bft) NO 56 0 min 99 W/m 1,3 C 11,3 km/h (2 Bft)
22.02.2019 10:50 3,2 C 89 % 1038,0 hPa 0,0 l/m 2,2 km/h (1 Bft) NO 37 0 min 100 W/m 1,6 C 9,7 km/h (2 Bft)
22.02.2019 10:45 3,2 C 89 % 1037,9 hPa 0,0 l/m 3,3 km/h (1 Bft) NO 47 0 min 100 W/m 1,6 C 16,1 km/h (3 Bft)
22.02.2019 10:40 3,3 C 89 % 1037,9 hPa 0,0 l/m 2,0 km/h (1 Bft) O 92 0 min 104 W/m 1,7 C 12,9 km/h (3 Bft)
22.02.2019 10:35 3,3 C 90 % 1037,8 hPa 0,0 l/m 3,5 km/h (1 Bft) NO 54 0 min 110 W/m 1,8 C 11,3 km/h (2 Bft)
22.02.2019 10:30 3,2 C 90 % 1037,8 hPa 0,0 l/m 2,4 km/h (1 Bft) O 90 0 min 110 W/m 1,7 C 9,7 km/h (2 Bft)
22.02.2019 10:25 3,1 C 90 % 1037,7 hPa 0,0 l/m 1,8 km/h (1 Bft) NO 49 0 min 106 W/m 1,6 C 6,4 km/h (2 Bft)
22.02.2019 10:20 3,0 C 90 % 1037,5 hPa 0,0 l/m 3,8 km/h (1 Bft) NO 55 0 min 91 W/m 1,5 C 12,9 km/h (3 Bft)
22.02.2019 10:15 3,0 C 91 % 1037,4 hPa 0,0 l/m 2,7 km/h (1 Bft) N-NO 20 0 min 87 W/m 1,7 C 11,3 km/h (2 Bft)
22.02.2019 10:10 3,0 C 91 % 1037,3 hPa 0,0 l/m 3,9 km/h (1 Bft) NO 35 0 min 81 W/m 1,7 C 14,5 km/h (3 Bft)
22.02.2019 10:05 3,1 C 91 % 1037,4 hPa 0,0 l/m 2,9 km/h (1 Bft) NW 319 0 min 89 W/m 1,8 C 11,3 km/h (2 Bft)
22.02.2019 10:00 3,1 C 92 % 1037,2 hPa 0,0 l/m 2,3 km/h (1 Bft) N-NO 29 0 min 76 W/m 1,9 C 11,3 km/h (2 Bft)
22.02.2019 09:55 3,1 C 92 % 1037,2 hPa 0,0 l/m 3,9 km/h (1 Bft) O-NO 57 0 min 85 W/m 1,9 C 11,3 km/h (2 Bft)
22.02.2019 09:50 3,1 C 92 % 1037,1 hPa 0,0 l/m 2,1 km/h (1 Bft) NO 36 0 min 71 W/m 1,9 C 6,4 km/h (2 Bft)
22.02.2019 09:45 3,1 C 92 % 1037,0 hPa 0,0 l/m 5,9 km/h (2 Bft) SO 130 0 min 51 W/m 1,9 C 12,9 km/h (3 Bft)
22.02.2019 09:40 3,2 C 93 % 1036,9 hPa 0,0 l/m 4,1 km/h (1 Bft) N-NO 30 0 min 53 W/m 2,2 C 9,7 km/h (2 Bft)
22.02.2019 09:35 3,4 C 93 % 1036,8 hPa 0,0 l/m 1,6 km/h (1 Bft) N-NO 20 0 min 59 W/m 2,4 C 8,0 km/h (2 Bft)
22.02.2019 09:30 3,4 C 93 % 1036,6 hPa 0,0 l/m 1,7 km/h (1 Bft) SO 133 0 min 63 W/m 2,4 C 12,9 km/h (3 Bft)
22.02.2019 09:25 3,4 C 94 % 1036,5 hPa 0,0 l/m 0,9 km/h (0 Bft) NO 56 0 min 58 W/m 2,5 C 6,4 km/h (2 Bft)
22.02.2019 09:20 3,4 C 94 % 1036,4 hPa 0,0 l/m 1,3 km/h (1 Bft) NO 55 0 min 61 W/m 2,5 C 11,3 km/h (2 Bft)
22.02.2019 09:15 3,4 C 94 % 1036,4 hPa 0,0 l/m 1,1 km/h (1 Bft) O-NO 67 0 min 66 W/m 2,5 C 8,0 km/h (2 Bft)
22.02.2019 09:10 3,4 C 94 % 1036,3 hPa 0,0 l/m 3,2 km/h (1 Bft) NO 46 0 min 60 W/m 2,5 C 12,9 km/h (3 Bft)
22.02.2019 09:05 3,4 C 94 % 1036,1 hPa 0,0 l/m 1,5 km/h (1 Bft) O-NO 69 0 min 50 W/m 2,5 C 8,0 km/h (2 Bft)
22.02.2019 09:00 3,4 C 95 % 1036,0 hPa 0,0 l/m 1,7 km/h (1 Bft) O 84 0 min 48 W/m 2,7 C 8,0 km/h (2 Bft)
22.02.2019 08:55 3,5 C 95 % 1035,9 hPa 0,0 l/m 2,6 km/h (1 Bft) O-NO 67 0 min 42 W/m 2,8 C 14,5 km/h (3 Bft)
22.02.2019 08:50 3,6 C 95 % 1035,8 hPa 0,0 l/m 4,8 km/h (1 Bft) N-NO 14 0 min 35 W/m 2,9 C 14,5 km/h (3 Bft)
22.02.2019 08:45 3,7 C 95 % 1035,7 hPa 0,0 l/m 4,8 km/h (1 Bft) NO 35 0 min 37 W/m 3,0 C 12,9 km/h (3 Bft)
22.02.2019 08:40 3,8 C 95 % 1035,5 hPa 0,0 l/m 1,8 km/h (1 Bft) SO 141 0 min 25 W/m 3,1 C 6,4 km/h (2 Bft)
22.02.2019 08:35 3,9 C 95 % 1035,4 hPa 0,0 l/m 1,0 km/h (0 Bft) N-NO 33 0 min 17 W/m 3,2 C 9,7 km/h (2 Bft)
22.02.2019 08:30 3,9 C 95 % 1035,3 hPa 0,0 l/m 2,4 km/h (1 Bft) NO 36 0 min 14 W/m 3,2 C 8,0 km/h (2 Bft)
22.02.2019 08:25 4,0 C 95 % 1035,2 hPa 0,0 l/m 3,2 km/h (1 Bft) NO 42 0 min 14 W/m 3,3 C 12,9 km/h (3 Bft)
22.02.2019 08:20 4,0 C 95 % 1035,0 hPa 0,0 l/m 0,3 km/h (0 Bft) N 10 0 min 12 W/m 3,3 C 4,8 km/h (1 Bft)
22.02.2019 08:15 3,9 C 95 % 1034,9 hPa 0,0 l/m 0,9 km/h (0 Bft) NO 34 0 min 12 W/m 3,2 C 6,4 km/h (2 Bft)
22.02.2019 08:10 3,9 C 95 % 1034,8 hPa 0,0 l/m 1,0 km/h (0 Bft) O 84 0 min 12 W/m 3,2 C 11,3 km/h (2 Bft)
22.02.2019 08:05 3,9 C 95 % 1034,6 hPa 0,0 l/m 0,7 km/h (0 Bft) N-NO 24 0 min 13 W/m 3,2 C 4,8 km/h (1 Bft)
22.02.2019 08:00 3,8 C 95 % 1034,5 hPa 0,0 l/m 0,2 km/h (0 Bft) N-NO 18 0 min 8 W/m 3,1 C 3,2 km/h (1 Bft)
22.02.2019 07:55 3,8 C 95 % 1034,4 hPa 0,0 l/m 0,7 km/h (0 Bft) N-NO 30 0 min 6 W/m 3,1 C 4,8 km/h (1 Bft)
22.02.2019 07:50 3,8 C 95 % 1034,3 hPa 0,0 l/m 1,0 km/h (0 Bft) N-NO 18 0 min 4 W/m 3,1 C 6,4 km/h (2 Bft)
22.02.2019 07:45 3,8 C 95 % 1034,2 hPa 0,0 l/m 1,6 km/h (1 Bft) N 355 0 min 0 W/m 3,1 C 9,7 km/h (2 Bft)
22.02.2019 07:40 3,8 C 95 % 1034,0 hPa 0,0 l/m 1,4 km/h (1 Bft) N-NW 347 0 min 0 W/m 3,1 C 6,4 km/h (2 Bft)
22.02.2019 07:35 3,8 C 95 % 1033,9 hPa 0,0 l/m 2,6 km/h (1 Bft) NO 45 0 min 0 W/m 3,1 C 12,9 km/h (3 Bft)
22.02.2019 07:30 3,8 C 95 % 1033,8 hPa 0,0 l/m 1,5 km/h (1 Bft) N-NW 348 0 min 0 W/m 3,1 C 8,0 km/h (2 Bft)
22.02.2019 07:25 3,8 C 95 % 1033,7 hPa 0,0 l/m 1,0 km/h (0 Bft) NO 47 0 min 0 W/m 3,1 C 8,0 km/h (2 Bft)
22.02.2019 07:20 3,9 C 95 % 1033,6 hPa 0,0 l/m 3,2 km/h (1 Bft) N-NO 31 0 min 0 W/m 3,2 C 12,9 km/h (3 Bft)
22.02.2019 07:15 4,0 C 95 % 1033,6 hPa 0,0 l/m 2,5 km/h (1 Bft) O-NO 64 0 min 0 W/m 3,3 C 8,0 km/h (2 Bft)
22.02.2019 07:10 4,1 C 95 % 1033,4 hPa 0,0 l/m 3,3 km/h (1 Bft) NO 38 0 min 0 W/m 3,4 C 12,9 km/h (3 Bft)
22.02.2019 07:05 4,2 C 95 % 1033,3 hPa 0,0 l/m 1,0 km/h (0 Bft) O 93 0 min 0 W/m 3,5 C 8,0 km/h (2 Bft)
22.02.2019 07:00 4,3 C 95 % 1033,2 hPa 0,0 l/m 1,3 km/h (1 Bft) N 355 0 min 0 W/m 3,6 C 6,4 km/h (2 Bft)
22.02.2019 06:55 4,4 C 95 % 1033,0 hPa 0,0 l/m 2,6 km/h (1 Bft) O-NO 66 0 min 0 W/m 3,7 C 14,5 km/h (3 Bft)
22.02.2019 06:50 4,4 C 95 % 1032,9 hPa 0,0 l/m 2,3 km/h (1 Bft) N-NO 28 0 min 0 W/m 3,7 C 6,4 km/h (2 Bft)
22.02.2019 06:45 4,6 C 95 % 1032,9 hPa 0,0 l/m 0,9 km/h (0 Bft) NO 51 0 min 0 W/m 3,9 C 6,4 km/h (2 Bft)
22.02.2019 06:40 4,6 C 95 % 1032,7 hPa 0,0 l/m 0,1 km/h (0 Bft) N 355 0 min 0 W/m 3,9 C 1,6 km/h (1 Bft)
22.02.2019 06:35 4,6 C 95 % 1032,6 hPa 0,0 l/m 0,3 km/h (0 Bft) N 355 0 min 0 W/m 3,9 C 3,2 km/h (1 Bft)
22.02.2019 06:30 4,7 C 95 % 1032,6 hPa 0,0 l/m 1,2 km/h (1 Bft) O-NO 69 0 min 0 W/m 4,0 C 4,8 km/h (1 Bft)
22.02.2019 06:25 4,8 C 95 % 1032,5 hPa 0,0 l/m 0,0 km/h (0 Bft) O-NO 67 0 min 0 W/m 4,1 C 4,8 km/h (1 Bft)
22.02.2019 06:20 4,8 C 95 % 1032,4 hPa 0,0 l/m 1,6 km/h (1 Bft) N-NW 337 0 min 0 W/m 4,1 C 6,4 km/h (2 Bft)
22.02.2019 06:15 4,9 C 95 % 1032,4 hPa 0,0 l/m 0,0 km/h (0 Bft) N 360 0 min 0 W/m 4,2 C 3,2 km/h (1 Bft)
22.02.2019 06:10 4,9 C 95 % 1032,3 hPa 0,0 l/m 0,0 km/h (0 Bft) N-NO 22 0 min 0 W/m 4,2 C 3,2 km/h (1 Bft)
22.02.2019 06:05 4,9 C 95 % 1032,1 hPa 0,0 l/m 0,0 km/h (0 Bft) N-NO 22 0 min 0 W/m 4,2 C 4,8 km/h (1 Bft)
22.02.2019 06:00 5,0 C 95 % 1032,0 hPa 0,0 l/m 1,6 km/h (1 Bft) N-NO 22 0 min 0 W/m 4,3 C 4,8 km/h (1 Bft)
22.02.2019 05:55 5,1 C 95 % 1031,9 hPa 0,0 l/m 0,0 km/h (0 Bft) O-NO 67 0 min 0 W/m 4,4 C 3,2 km/h (1 Bft)
22.02.2019 05:50 5,1 C 95 % 1031,8 hPa 0,0 l/m 1,6 km/h (1 Bft) N-NO 22 0 min 0 W/m 4,4 C 4,8 km/h (1 Bft)
22.02.2019 05:45 5,2 C 95 % 1031,8 hPa 0,0 l/m 1,6 km/h (1 Bft) NO 45 0 min 0 W/m 4,5 C 8,0 km/h (2 Bft)
22.02.2019 05:40 5,3 C 95 % 1031,7 hPa 0,0 l/m 0,0 km/h (0 Bft) O-NO 67 0 min 0 W/m 4,6 C 4,8 km/h (1 Bft)
22.02.2019 05:35 5,3 C 95 % 1031,6 hPa 0,0 l/m 1,6 km/h (1 Bft) NO 45 0 min 0 W/m 4,6 C 6,4 km/h (2 Bft)
22.02.2019 05:30 5,4 C 95 % 1031,5 hPa 0,0 l/m 1,6 km/h (1 Bft) NO 45 0 min 0 W/m 4,7 C 8,0 km/h (2 Bft)
22.02.2019 05:25 5,5 C 95 % 1031,3 hPa 0,0 l/m 1,6 km/h (1 Bft) N 360 0 min 0 W/m 4,8 C 14,5 km/h (3 Bft)
22.02.2019 05:20 5,5 C 95 % 1031,3 hPa 0,0 l/m 0,0 km/h (0 Bft) N 360 0 min 0 W/m 4,8 C 3,2 km/h (1 Bft)
22.02.2019 05:15 5,6 C 95 % 1031,2 hPa 0,0 l/m 0,0 km/h (0 Bft) NO 45 0 min 0 W/m 4,9 C 4,8 km/h (1 Bft)
22.02.2019 05:10 5,6 C 95 % 1031,0 hPa 0,0 l/m 0,0 km/h (0 Bft) NO 45 0 min 0 W/m 4,9 C 1,6 km/h (1 Bft)
22.02.2019 05:05 5,7 C 95 % 1030,9 hPa 0,0 l/m 1,6 km/h (1 Bft) NO 45 0 min 0 W/m 5,0 C 6,4 km/h (2 Bft)
22.02.2019 05:00 5,9 C 95 % 1030,8 hPa 0,0 l/m 3,2 km/h (1 Bft) N-NO 22 0 min 0 W/m 5,2 C 11,3 km/h (2 Bft)
22.02.2019 04:55 6,2 C 95 % 1030,6 hPa 0,0 l/m 3,2 km/h (1 Bft) NO 45 0 min 0 W/m 5,5 C 14,5 km/h (3 Bft)
22.02.2019 04:50 6,6 C 95 % 1030,5 hPa 0,0 l/m 3,2 km/h (1 Bft) NO 45 0 min 0 W/m 5,9 C 12,9 km/h (3 Bft)
22.02.2019 04:45 6,7 C 95 % 1030,3 hPa 0,0 l/m 1,6 km/h (1 Bft) NO 45 0 min 0 W/m 6,0 C 9,7 km/h (2 Bft)
22.02.2019 04:40 6,8 C 95 % 1030,3 hPa 0,0 l/m 1,6 km/h (1 Bft) N-NW 337 0 min 0 W/m 6,1 C 9,7 km/h (2 Bft)
22.02.2019 04:35 6,9 C 95 % 1030,1 hPa 0,0 l/m 1,6 km/h (1 Bft) NO 45 0 min 0 W/m 6,2 C 12,9 km/h (3 Bft)
22.02.2019 04:30 7,0 C 95 % 1030,0 hPa 0,0 l/m 3,2 km/h (1 Bft) N 360 0 min 0 W/m 6,3 C 12,9 km/h (3 Bft)
22.02.2019 04:25 7,1 C 95 % 1029,9 hPa 0,0 l/m 1,6 km/h (1 Bft) N-NW 337 0 min 0 W/m 6,4 C 6,4 km/h (2 Bft)
22.02.2019 04:20 7,1 C 95 % 1029,9 hPa 0,0 l/m 1,6 km/h (1 Bft) N-NW 337 0 min 0 W/m 6,4 C 8,0 km/h (2 Bft)
22.02.2019 04:15 7,1 C 95 % 1029,9 hPa 0,0 l/m 0,0 km/h (0 Bft) N-NO 22 0 min 0 W/m 6,4 C 3,2 km/h (1 Bft)
22.02.2019 04:10 7,1 C 95 % 1029,8 hPa 0,0 l/m 0,0 km/h (0 Bft) N-NO 22 0 min 0 W/m 6,4 C 1,6 km/h (1 Bft)
22.02.2019 04:05 7,1 C 95 % 1029,7 hPa 0,0 l/m 0,0 km/h (0 Bft) N 360 0 min 0 W/m 6,4 C 4,8 km/h (1 Bft)
22.02.2019 04:00 7,1 C 95 % 1029,6 hPa 0,0 l/m 0,0 km/h (0 Bft) N 360 0 min 0 W/m 6,4 C 4,8 km/h (1 Bft)
22.02.2019 03:55 7,1 C 95 % 1029,6 hPa 0,0 l/m 0,0 km/h (0 Bft) N-NW 337 0 min 0 W/m 6,4 C 3,2 km/h (1 Bft)
22.02.2019 03:50 7,1 C 95 % 1029,5 hPa 0,0 l/m 1,6 km/h (1 Bft) NW 315 0 min 0 W/m 6,4 C 4,8 km/h (1 Bft)
22.02.2019 03:45 7,1 C 95 % 1029,4 hPa 0,0 l/m 0,0 km/h (0 Bft) N 360 0 min 0 W/m 6,4 C 6,4 km/h (2 Bft)
22.02.2019 03:40 7,1 C 95 % 1029,3 hPa 0,0 l/m 0,0 km/h (0 Bft) W 270 0 min 0 W/m 6,4 C 3,2 km/h (1 Bft)
22.02.2019 03:35 7,1 C 95 % 1029,3 hPa 0,0 l/m 1,6 km/h (1 Bft) NW 315 0 min 0 W/m 6,4 C 9,7 km/h (2 Bft)
22.02.2019 03:30 7,1 C 95 % 1029,3 hPa 0,0 l/m 0,0 km/h (0 Bft) NW 315 0 min 0 W/m 6,4 C 3,2 km/h (1 Bft)
22.02.2019 03:25 7,1 C 95 % 1029,3 hPa 0,0 l/m 0,0 km/h (0 Bft) N 360 0 min 0 W/m 6,4 C 1,6 km/h (1 Bft)
22.02.2019 03:20 7,1 C 95 % 1029,2 hPa 0,0 l/m 0,0 km/h (0 Bft) N-NO 22 0 min 0 W/m 6,4 C 6,4 km/h (2 Bft)
22.02.2019 03:15 7,1 C 95 % 1029,2 hPa 0,0 l/m 0,0 km/h (0 Bft) N 0 0 min 0 W/m 6,4 C 0,0 km/h (0 Bft)
22.02.2019 03:10 7,1 C 95 % 1029,1 hPa 0,0 l/m 0,0 km/h (0 Bft) N 0 0 min 0 W/m 6,4 C 0,0 km/h (0 Bft)
22.02.2019 03:05 7,1 C 95 % 1029,1 hPa 0,0 l/m 0,0 km/h (0 Bft) N 0 0 min 0 W/m 6,4 C 0,0 km/h (0 Bft)
22.02.2019 03:00 7,1 C 95 % 1029,0 hPa 0,0 l/m 0,0 km/h (0 Bft) N 360 0 min 0 W/m 6,4 C 1,6 km/h (1 Bft)
22.02.2019 02:55 7,1 C 95 % 1029,0 hPa 0,0 l/m 0,0 km/h (0 Bft) N 360 0 min 0 W/m 6,4 C 6,4 km/h (2 Bft)
22.02.2019 02:50 7,1 C 95 % 1028,8 hPa 0,0 l/m 0,0 km/h (0 Bft) N-NO 22 0 min 0 W/m 6,4 C 1,6 km/h (1 Bft)
22.02.2019 02:45 7,1 C 95 % 1028,8 hPa 0,0 l/m 0,0 km/h (0 Bft) N-NO 22 0 min 0 W/m 6,4 C 1,6 km/h (1 Bft)
22.02.2019 02:40 7,1 C 95 % 1028,8 hPa 0,0 l/m 0,0 km/h (0 Bft) N 0 0 min 0 W/m 6,4 C 0,0 km/h (0 Bft)
22.02.2019 02:35 7,1 C 95 % 1028,6 hPa 0,0 l/m 0,0 km/h (0 Bft) N 0 0 min 0 W/m 6,4 C 0,0 km/h (0 Bft)
22.02.2019 02:30 7,1 C 95 % 1028,6 hPa 0,0 l/m 0,0 km/h (0 Bft) W 270 0 min 0 W/m 6,4 C 9,7 km/h (2 Bft)
22.02.2019 02:25 7,1 C 95 % 1028,5 hPa 0,0 l/m 0,0 km/h (0 Bft) NW 315 0 min 0 W/m 6,4 C 1,6 km/h (1 Bft)
22.02.2019 02:20 7,1 C 95 % 1028,4 hPa 0,0 l/m 0,0 km/h (0 Bft) NW 315 0 min 0 W/m 6,4 C 3,2 km/h (1 Bft)
22.02.2019 02:15 7,2 C 95 % 1028,5 hPa 0,0 l/m 0,0 km/h (0 Bft) N 0 0 min 0 W/m 6,5 C 0,0 km/h (0 Bft)
22.02.2019 02:10 7,2 C 95 % 1028,3 hPa 0,0 l/m 0,0 km/h (0 Bft) NW 315 0 min 0 W/m 6,5 C 1,6 km/h (1 Bft)
22.02.2019 02:05 7,2 C 95 % 1028,2 hPa 0,0 l/m 0,0 km/h (0 Bft) N 0 0 min 0 W/m 6,5 C 0,0 km/h (0 Bft)
22.02.2019 02:00 7,2 C 95 % 1028,1 hPa 0,0 l/m 0,0 km/h (0 Bft) W 270 0 min 0 W/m 6,5 C 4,8 km/h (1 Bft)
22.02.2019 01:55 7,2 C 95 % 1028,1 hPa 0,0 l/m 0,0 km/h (0 Bft) NW 315 0 min 0 W/m 6,5 C 1,6 km/h (1 Bft)
22.02.2019 01:50 7,2 C 95 % 1028,0 hPa 0,0 l/m 0,0 km/h (0 Bft) NW 315 0 min 0 W/m 6,5 C 3,2 km/h (1 Bft)
22.02.2019 01:45 7,2 C 95 % 1028,0 hPa 0,0 l/m 0,0 km/h (0 Bft) N 0 0 min 0 W/m 6,5 C 0,0 km/h (0 Bft)
22.02.2019 01:40 7,2 C 95 % 1027,9 hPa 0,0 l/m 0,0 km/h (0 Bft) W 270 0 min 0 W/m 6,5 C 4,8 km/h (1 Bft)
22.02.2019 01:35 7,2 C 95 % 1027,8 hPa 0,0 l/m 0,0 km/h (0 Bft) SW 225 0 min 0 W/m 6,5 C 1,6 km/h (1 Bft)
22.02.2019 01:30 7,2 C 95 % 1027,7 hPa 0,0 l/m 0,0 km/h (0 Bft) W-SW 247 0 min 0 W/m 6,5 C 6,4 km/h (2 Bft)
22.02.2019 01:25 7,2 C 95 % 1027,6 hPa 0,0 l/m 0,0 km/h (0 Bft) W 270 0 min 0 W/m 6,5 C 1,6 km/h (1 Bft)
22.02.2019 01:20 7,3 C 95 % 1027,6 hPa 0,0 l/m 1,6 km/h (1 Bft) W 270 0 min 0 W/m 6,6 C 4,8 km/h (1 Bft)
22.02.2019 01:15 7,3 C 95 % 1027,5 hPa 0,0 l/m 1,6 km/h (1 Bft) W-NW 292 0 min 0 W/m 6,6 C 4,8 km/h (1 Bft)
22.02.2019 01:10 7,3 C 95 % 1027,5 hPa 0,0 l/m 0,0 km/h (0 Bft) W 270 0 min 0 W/m 6,6 C 1,6 km/h (1 Bft)
22.02.2019 01:05 7,3 C 95 % 1027,3 hPa 0,0 l/m 0,0 km/h (0 Bft) W 270 0 min 0 W/m 6,6 C 1,6 km/h (1 Bft)
22.02.2019 01:00 7,3 C 95 % 1027,2 hPa 0,0 l/m 0,0 km/h (0 Bft) W 270 0 min 0 W/m 6,6 C 3,2 km/h (1 Bft)
22.02.2019 00:55 7,3 C 95 % 1027,1 hPa 0,0 l/m 0,0 km/h (0 Bft) W-NW 292 0 min 0 W/m 6,6 C 3,2 km/h (1 Bft)
22.02.2019 00:50 7,3 C 95 % 1027,0 hPa 0,0 l/m 0,0 km/h (0 Bft) W 270 0 min 0 W/m 6,6 C 1,6 km/h (1 Bft)
22.02.2019 00:45 7,3 C 95 % 1026,9 hPa 0,0 l/m 0,0 km/h (0 Bft) W-SW 247 0 min 0 W/m 6,6 C 4,8 km/h (1 Bft)
22.02.2019 00:40 7,3 C 95 % 1026,8 hPa 0,0 l/m 0,0 km/h (0 Bft) W-SW 247 0 min 0 W/m 6,6 C 3,2 km/h (1 Bft)
22.02.2019 00:35 7,3 C 95 % 1026,7 hPa 0,0 l/m 1,6 km/h (1 Bft) W 270 0 min 0 W/m 6,6 C 8,0 km/h (2 Bft)
22.02.2019 00:30 7,3 C 95 % 1026,7 hPa 0,0 l/m 0,0 km/h (0 Bft) W 270 0 min 0 W/m 6,6 C 3,2 km/h (1 Bft)
22.02.2019 00:25 7,3 C 95 % 1026,6 hPa 0,0 l/m 1,6 km/h (1 Bft) W 270 0 min 0 W/m 6,6 C 9,7 km/h (2 Bft)
22.02.2019 00:20 7,3 C 95 % 1026,6 hPa 0,0 l/m 1,6 km/h (1 Bft) N 360 0 min 0 W/m 6,6 C 11,3 km/h (2 Bft)
22.02.2019 00:15 7,3 C 95 % 1026,6 hPa 0,0 l/m 1,6 km/h (1 Bft) W-NW 292 0 min 0 W/m 6,6 C 9,7 km/h (2 Bft)
22.02.2019 00:10 7,3 C 95 % 1026,5 hPa 0,0 l/m 1,6 km/h (1 Bft) W-NW 292 0 min 0 W/m 6,6 C 9,7 km/h (2 Bft)
22.02.2019 00:05 7,3 C 95 % 1026,4 hPa 0,0 l/m 0,0 km/h (0 Bft) S-SW 202 0 min 0 W/m 6,6 C 3,2 km/h (1 Bft)
22.02.2019 00:00 7,3 C 95 % 1026,3 hPa 0,0 l/m 1,6 km/h (1 Bft) W-SW 247 0 min 0 W/m 6,6 C 4,8 km/h (1 Bft)
21.02.2019 23:55 7,3 C 95 % 1026,2 hPa 0,0 l/m 0,0 km/h (0 Bft) W-SW 247 0 min 0 W/m 6,6 C 3,2 km/h (1 Bft)
21.02.2019 23:50 7,3 C 95 % 1026,2 hPa 0,0 l/m 1,6 km/h (1 Bft) W 270 0 min 0 W/m 6,6 C 4,8 km/h (1 Bft)
21.02.2019 23:45 7,3 C 95 % 1026,2 hPa 0,0 l/m 0,0 km/h (0 Bft) W-SW 247 0 min 0 W/m 6,6 C 3,2 km/h (1 Bft)
21.02.2019 23:40 7,3 C 95 % 1026,1 hPa 0,0 l/m 0,0 km/h (0 Bft) W 270 0 min 0 W/m 6,6 C 6,4 km/h (2 Bft)
21.02.2019 23:35 7,3 C 95 % 1026,1 hPa 0,0 l/m 1,6 km/h (1 Bft) W-SW 247 0 min 0 W/m 6,6 C 9,7 km/h (2 Bft)
21.02.2019 23:30 7,3 C 95 % 1026,0 hPa 0,0 l/m 1,6 km/h (1 Bft) W-SW 247 0 min 0 W/m 6,6 C 8,0 km/h (2 Bft)
21.02.2019 23:25 7,3 C 95 % 1025,8 hPa 0,0 l/m 3,2 km/h (1 Bft) W 270 0 min 0 W/m 6,6 C 14,5 km/h (3 Bft)
21.02.2019 23:20 7,3 C 95 % 1025,8 hPa 0,0 l/m 1,6 km/h (1 Bft) NW 315 0 min 0 W/m 6,6 C 11,3 km/h (2 Bft)
21.02.2019 23:15 7,3 C 95 % 1025,8 hPa 0,0 l/m 3,2 km/h (1 Bft) W 270 0 min 0 W/m 6,6 C 6,4 km/h (2 Bft)
21.02.2019 23:10 7,3 C 95 % 1025,7 hPa 0,0 l/m 3,2 km/h (1 Bft) W-SW 247 0 min 0 W/m 6,6 C 6,4 km/h (2 Bft)
21.02.2019 23:05 7,3 C 95 % 1025,7 hPa 0,0 l/m 1,6 km/h (1 Bft) SW 225 0 min 0 W/m 6,6 C 12,9 km/h (3 Bft)
21.02.2019 23:00 7,3 C 95 % 1025,6 hPa 0,0 l/m 1,6 km/h (1 Bft) SW 225 0 min 0 W/m 6,6 C 8,0 km/h (2 Bft)
21.02.2019 22:55 7,3 C 95 % 1025,6 hPa 0,0 l/m 0,0 km/h (0 Bft) W 270 0 min 0 W/m 6,6 C 3,2 km/h (1 Bft)
21.02.2019 22:50 7,3 C 95 % 1025,5 hPa 0,0 l/m 1,6 km/h (1 Bft) W 270 0 min 0 W/m 6,6 C 6,4 km/h (2 Bft)
21.02.2019 22:45 7,3 C 95 % 1025,5 hPa 0,0 l/m 1,6 km/h (1 Bft) W 270 0 min 0 W/m 6,6 C 8,0 km/h (2 Bft)
21.02.2019 22:40 7,3 C 95 % 1025,4 hPa 0,0 l/m 0,0 km/h (0 Bft) S-SW 202 0 min 0 W/m 6,6 C 4,8 km/h (1 Bft)
21.02.2019 22:35 7,3 C 95 % 1025,3 hPa 0,0 l/m 0,0 km/h (0 Bft) W 270 0 min 0 W/m 6,6 C 3,2 km/h (1 Bft)
21.02.2019 22:30 7,3 C 95 % 1025,3 hPa 0,0 l/m 0,0 km/h (0 Bft) W 270 0 min 0 W/m 6,6 C 8,0 km/h (2 Bft)
21.02.2019 22:25 7,3 C 95 % 1025,2 hPa 0,0 l/m 1,6 km/h (1 Bft) SW 225 0 min 0 W/m 6,6 C 4,8 km/h (1 Bft)
21.02.2019 22:20 7,3 C 95 % 1025,2 hPa 0,0 l/m 1,6 km/h (1 Bft) W-SW 247 0 min 0 W/m 6,6 C 11,3 km/h (2 Bft)
21.02.2019 22:15 7,4 C 95 % 1025,2 hPa 0,0 l/m 1,6 km/h (1 Bft) W 270 0 min 0 W/m 6,7 C 12,9 km/h (3 Bft)
21.02.2019 22:10 7,4 C 95 % 1025,2 hPa 0,0 l/m 0,0 km/h (0 Bft) W-NW 292 0 min 0 W/m 6,7 C 3,2 km/h (1 Bft)
21.02.2019 22:05 7,4 C 95 % 1025,1 hPa 0,0 l/m 2,2 km/h (1 Bft) W-NW 286 0 min 0 W/m 6,7 C 9,7 km/h (2 Bft)
21.02.2019 22:00 7,5 C 95 % 1025,1 hPa 0,0 l/m 1,7 km/h (1 Bft) W 273 0 min 0 W/m 6,8 C 6,4 km/h (2 Bft)
_ Min-Zeit 21:40 15:55 22:00 - 22:10 - - - - 21:40 01:45
Minimum _ 0,7 C 63 % 1025,1 hPa - 0,0 km/h (0 Bft) - - - - -1,7 C 0,0 km/h (0 Bft)
_ Max-Zeit 22:00 22:00 21:00 22:00 09:45 - - 13:26 13:15 22:00 11:10
Maximum _ 7,6 C 95 % 1041,7 hPa 0,0 l/m 5,9 km/h
SO (2 Bft)
- - 6 min 486 W/m 6,8 C 17,7 km/h
O (3 Bft)
Durchschnitt _ 5,4 C 86 % 1034,2 hPa #0,0 l/m 0,8 km/h (0 Bft) NO - #2:51 h 143 W/m 3,2 C 4,7 km/h (1 Bft)